Location: Ferques
(50.8300°N, 1.7599°E)
Time: 18:11:32
(UTC+00:00)

Cosmos 1238 Rocket - Pass Details

Date: 19 May 2025
Orbit: 356 x 776 km, 82.9° (Epoch: 21 June)

Event Time Altitude Azimuth Distance (km) Brightness Sun altitude
Exits shadow 21:24:35 20° 157° (SSE) 1,188 3.9 -12.4°
Maximum altitude 21:26:44 42° 95° (E) 672 3.0 -12.6°
Drops below altitude 10° 21:29:53 10° 23° (NNE) 1,531 5.6 -12.8°
Sets 21:31:52 0° 16° (NNE) 2,348 6.7 -13.0°
